EHI
0 0 0 0 0 0 0 0 0 0 0 0 0 0 0 0 0 0 1 4 6 7 7 5 4 2 1 1 0 0 0 0 0 0 0 0 0 0 0 0 0 0 0
0 0 0 0 0 0 0 0 0 0 0 0 0 0 0 0 0 0 1 3 4 6 7 7 6 5 3 2 1 0 0 0 0 0 0 0 0 0 0 0 0 0 0
0 0 0 0 0 0 0 0 0 0 0 0 0 0 0 0 0 0 0 1 2 4 7 9 9 7 5 3 2 1 0 0 0 0 0 0 0 0 0 0 0 0 0
0 0 0 0 0 0 0 0 0 0 0 0 0 0 0 0 0 0 0 0 1 2 5 7 9 8 7 5 4 3 2 1 1 1 0 0 0 0 0 0 0 0 0
1 1 1 0 0 0 0 0 0 0 0 0 0 0 0 0 0 0 0 0 0 1 2 4 7 9 9 8 7 7 5 5 4 2 1 0 0 0 0 0 0 0 0
3 3 2 0 0 0 0 0 0 0 0 0 0 0 0 0 0 0 0 0 0 0 0 1 4 7 9 10 10 9 9 9 8 5 3 1 0 0 0 0 0 0 0
6 5 2 0 0 0 0 0 0 0 0 0 0 0 0 0 0 0 0 0 0 0 0 1 2 3 6 9 9 10 11 11 11 8 5 3 1 0 0 0 0 0 0
6 5 3 1 0 0 0 0 0 0 0 0 0 0 0 0 0 0 0 0 0 0 0 0 1 1 2 3 4 8 12 13 12 11 8 6 3 1 0 0 0 0 0
7 6 4 2 0 0 0 0 0 0 0 0 0 0 0 0 0 0 0 0 0 0 0 0 0 0 0 0 0 4 8 11 11 10 9 8 6 4 2 0 0 0 0
10 10 7 3 2 1 1 0 0 0 0 0 0 0 0 0 0 0 0 0 0 0 0 0 0 0 0 0 0 1 2 4 6 7 8 9 9 8 5 2 1 0 0
12 11 9 7 6 6 3 1 1 0 0 0 0 0 0 0 0 0 0 0 0 0 0 0 0 0 0 0 0 0 0 0 1 3 5 8 11 11 8 5 2 1 1
13 11 10 10 11 10 6 4 3 1 1 1 0 0 0 0 0 0 0 0 0 0 0 0 0 0 0 0 0 0 0 0 0 0 2 5 7 8 7 5 3 3 2
13 11 9 9 11 10 7 5 5 4 3 2 1 0 0 0 0 0 0 0 0 0 0 0 0 0 0 0 0 0 0 0 0 0 0 1 2 3 4 4 3 3 3
11 10 8 8 9 8 6 6 6 5 4 3 2 0 0 0 0 0 0 0 0 0 0 0 0 0 0 0 0 0 0 0 0 0 0 0 0 0 1 1 1 1 2
9 8 7 6 7 7 6 6 6 6 5 3 2 0 0 0 0 0 0 0 0 0 0 0 0 0 0 0 0 0 0 0 0 0 0 0 0 0 0 0 0 0 1
7 7 6 5 5 7 8 7 6 5 4 3 2 1 0 0 0 0 0 0 0 0 0 0 0 0 0 0 0 0 0 0 0 0 0 0 0 0 0 0 0 0 0
9 9 8 7 8 9 10 9 7 5 4 3 3 2 1 0 0 0 0 0 0 0 0 0 0 0 0 0 0 0 0 0 0 0 0 0 0 0 0 0 0 0 0
14 12 11 11 11 11 10 9 8 7 5 4 4 3 2 1 0 0 0 0 0 0 0 0 0 0 0 0 0 0 0 0 0 0 0 0 0 0 0 0 0 0 0
14 13 12 11 10 10 9 8 8 8 8 6 5 3 2 1 0 0 0 0 0 0 0 0 0 0 0 0 0 0 0 0 0 0 0 0 0 0 0 0 0 0 0
13 12 11 10 9 8 8 7 7 8 8 7 4 2 1 0 0 0 0 0 0 0 0 0 0 0 0 0 0 0 0 0 0 0 0 0 0 0 0 0 0 0 0
12 12 11 10 8 7 7 7 7 8 8 6 3 1 0 0 0 0 0 0 0 0 0 0 0 0 0 0 0 0 0 0 0 0 0 0 0 0 0 0 0 0 0
12 11 9 8 7 6 5 5 6 7 7 6 3 1 0 0 0 0 0 0 0 0 0 0 0 0 0 0 0 0 0 0 0 0 0 0 0 0 0 0 0 0 0
12 10 7 7 6 6 4 2 2 4 5 5 4 2 1 0 0 0 0 0 0 0 0 0 0 0 0 0 0 0 0 0 0 0 0 0 0 0 0 0 0 0 0
10 8 7 6 6 6 4 1 0 1 2 3 3 2 1 0 0 0 0 0 0 0 0 0 0 0 0 0 0 0 0 0 0 0 0 0 0 0 0 0 0 0 0
9 7 6 6 6 6 5 2 0 0 0 1 1 1 0 0 0 0 0 0 0 0 0 0 0 0 0 0 0 0 0 0 0 0 0 0 0 0 0 0 0 0 0
9 7 6 6 6 6 5 2 0 0 0 0 0 0 0 0 0 0 0 0 0 0 0 0 0 0 0 0 0 0 0 0 0 0 0 0 0 0 0 0 0 0 0
Wind_Speed
3 2 1 1 2 1 2 1 1 1 1 1 2 4 4 4 5 4 4 12 12 11 12 12 12 11 11 10 10 10 10 10 10 9 9 9 9 9 9 9 9 8 8
4 3 2 2 2 2 2 2 2 2 1 1 2 3 4 4 4 4 4 7 12 12 12 12 12 12 12 12 11 11 11 10 10 10 10 9 9 9 9 9 9 9 8
4 4 3 2 2 2 2 1 1 1 1 1 1 2 3 4 5 5 5 4 5 11 13 13 13 13 13 13 12 12 12 11 11 11 10 10 10 10 10 10 10 9 9
5 4 3 2 2 2 2 1 1 1 0 0 0 1 2 3 5 5 5 5 4 5 9 14 14 13 14 14 14 13 13 12 12 12 12 11 11 11 10 10 10 10 10
5 4 3 3 2 2 1 2 1 1 1 1 1 1 1 2 4 5 5 6 6 6 5 10 14 14 15 15 15 15 15 14 13 14 14 13 13 12 12 11 11 11 11
5 4 3 3 3 2 1 1 1 1 1 1 1 1 2 3 3 4 6 6 6 7 7 7 7 10 16 15 15 16 16 16 15 15 15 15 15 14 13 13 12 12 12
5 4 3 3 3 3 3 2 2 1 1 1 1 2 3 2 4 4 4 4 6 7 7 8 6 5 6 14 14 15 17 17 17 17 16 16 16 15 14 14 14 14 14
5 5 4 3 3 3 3 3 2 2 1 1 2 1 2 4 3 4 3 4 6 5 7 9 8 8 6 5 9 16 17 18 18 18 17 16 16 15 15 16 15 15 15
4 4 5 4 4 4 3 3 3 3 2 2 2 3 2 3 3 3 3 4 4 4 5 5 8 8 9 6 6 12 16 16 17 18 17 17 16 16 16 17 17 16 15
5 4 4 4 4 3 3 4 3 3 3 2 2 2 3 3 2 3 3 3 4 5 5 6 7 8 8 7 8 11 15 16 16 18 18 18 17 17 17 18 18 17 16
4 4 4 4 4 3 4 4 3 3 3 3 2 2 2 2 3 3 4 4 3 3 5 5 5 5 7 7 7 10 14 15 16 17 17 17 17 17 18 18 19 18 17
3 4 4 3 4 3 4 4 4 4 3 3 3 2 2 2 3 3 4 4 4 4 3 4 4 5 5 6 9 12 14 14 15 16 16 16 16 16 16 16 17 17 17
3 4 4 3 3 4 4 3 3 3 4 3 3 3 3 3 3 3 3 3 4 3 2 2 3 4 5 4 5 10 11 12 13 13 14 13 13 13 13 13 14 14 15
4 4 4 4 4 4 3 3 3 3 3 3 4 3 3 3 3 3 3 2 2 2 2 3 2 2 3 3 5 7 5 9 10 11 11 12 12 12 11 11 11 11 11
3 4 4 4 3 3 3 3 2 3 3 3 4 3 3 3 3 3 3 3 3 3 3 3 2 2 2 2 3 3 4 6 8 9 10 10 11 10 10 10 10 10 10
3 3 3 3 3 3 3 2 2 2 2 3 2 2 2 2 2 2 2 2 2 3 3 2 2 2 1 2 2 2 3 4 6 7 8 9 9 9 9 9 10 9 9
3 3 3 3 2 2 2 2 2 2 2 2 1 1 2 2 2 2 1 1 1 2 3 3 1 1 1 1 1 1 1 2 2 5 6 6 7 8 8 8 8 8 9
3 3 2 2 2 2 1 2 2 1 1 1 1 1 2 2 2 2 1 1 1 1 2 3 1 1 1 1 2 1 1 1 1 3 4 5 6 6 6 6 7 7 7
2 2 2 2 1 1 1 1 1 1 1 0 0 1 2 2 2 2 2 2 1 1 0 1 1 1 1 2 2 2 2 1 1 1 1 2 3 4 4 4 5 5 5
3 3 3 2 2 1 1 1 2 1 1 1 1 1 2 2 1 2 2 2 2 2 2 1 1 2 2 2 2 2 2 2 2 2 2 1 0 2 2 3 3 3 3
4 4 4 3 2 2 1 1 2 2 2 2 3 3 3 4 5 3 2 2 2 2 2 1 1 2 2 2 2 2 2 2 2 2 2 2 2 1 1 2 1 2 2
5 5 5 4 4 3 4 5 4 3 3 3 3 3 3 5 6 7 7 7 5 3 2 2 1 2 2 2 2 2 2 2 2 3 2 2 2 2 2 1 2 2 1
6 6 5 5 4 4 5 5 5 4 4 3 3 3 3 4 5 4 6 8 8 8 6 2 2 1 2 2 2 2 2 1 1 2 2 2 2 2 2 3 4 3 3
5 5 5 5 5 5 6 6 6 6 5 5 4 4 4 4 5 5 5 6 5 5 5 3 2 2 2 2 1 1 1 1 1 2 2 1 2 2 2 2 4 5 4
5 5 5 6 6 5 7 6 6 5 5 5 5 5 5 5 8 7 6 5 5 5 6 8 7 6 6 7 4 2 3 2 2 3 2 2 2 3 2 2 3 4 4
6 6 6 6 6 5 7 7 6 4 5 4 5 6 9 8 8 8 5 4 5 4 4 6 6 7 6 6 7 3 2 2 1 2 3 2 2 3 3 2 2 3 3
Wind_Direction
157 160 172 172 175 171 181 202 231 249 238 172 149 148 150 152 155 161 169 174 174 175 177 177 178 179 178 179 181 180 180 180 180 180 180 181 182 180 180 177 176 174 175
159 163 169 181 185 181 187 190 194 203 198 145 138 154 160 163 167 170 178 183 184 184 187 187 188 189 189 190 190 191 192 193 190 190 192 192 192 192 191 191 189 186 186
161 163 165 174 189 183 172 165 157 126 147 130 145 155 165 169 173 178 182 187 193 197 198 198 197 198 200 199 199 200 201 202 199 199 199 198 200 200 201 201 199 197 196
163 159 163 183 189 170 150 150 138 110 91 132 199 204 176 181 185 188 189 192 196 202 208 207 205 206 207 208 207 207 208 208 207 207 206 206 207 207 208 207 206 204 204
166 163 177 190 180 159 165 183 144 144 165 212 239 236 208 199 197 197 199 202 204 205 205 215 213 211 212 214 215 214 213 213 213 214 215 215 215 214 214 214 212 210 210
170 171 179 189 177 163 183 180 164 167 185 205 255 272 250 235 222 212 210 207 207 209 205 213 214 219 219 221 220 221 219 218 217 219 220 221 220 219 218 218 217 217 215
176 175 182 181 178 182 195 185 165 186 221 160 66 340 318 268 239 230 216 207 212 211 205 210 209 209 220 225 224 225 225 224 222 222 223 223 224 223 222 222 221 222 221
187 186 180 182 185 187 196 192 170 170 229 165 144 105 324 324 300 244 222 217 216 208 209 212 211 208 214 215 223 225 228 229 227 226 225 225 225 224 225 225 225 225 226
195 193 184 185 188 186 197 203 187 177 208 229 177 160 178 248 299 301 256 235 218 213 218 215 215 215 214 216 222 226 227 228 230 231 230 228 227 225 226 227 228 228 228
201 199 191 194 193 190 195 205 194 187 184 222 237 208 195 184 206 298 305 269 236 227 222 225 223 219 217 214 217 219 223 226 229 232 233 232 230 228 227 228 231 231 230
207 200 196 196 195 195 201 206 197 198 195 203 217 225 228 217 200 208 276 295 286 248 230 227 224 220 220 217 217 220 221 224 227 231 232 232 232 231 230 229 232 234 234
212 209 199 202 203 201 204 210 209 209 214 216 220 213 204 214 219 208 239 264 273 273 247 234 226 223 225 222 225 223 221 222 224 228 231 233 233 233 233 233 235 236 237
206 212 207 207 209 210 209 207 209 219 217 218 224 228 224 228 220 206 221 253 264 278 284 262 234 225 227 219 226 227 226 224 225 227 229 231 233 233 233 234 237 240 240
204 206 205 204 211 211 214 206 211 225 224 227 238 235 236 246 231 218 213 222 267 285 282 269 269 231 229 218 224 229 233 229 227 226 228 230 231 233 232 232 234 237 239
205 204 201 201 211 213 214 203 219 232 230 233 244 244 247 258 248 240 227 204 204 251 274 265 271 269 250 239 227 213 221 227 228 227 227 229 230 231 231 231 230 231 234
206 191 195 198 206 214 214 207 231 242 234 246 245 250 259 267 274 269 249 227 200 208 248 259 248 268 277 266 234 220 223 225 231 234 234 231 231 230 229 230 230 230 231
187 190 192 190 196 213 215 209 226 229 230 255 268 261 280 290 297 299 290 267 234 205 245 271 261 298 311 308 328 274 247 234 232 228 231 229 231 233 234 234 235 234 233
176 180 172 169 178 188 194 197 221 215 203 239 297 330 315 314 319 315 307 302 279 234 224 265 294 316 310 331 317 312 303 288 251 240 229 230 233 234 234 236 236 235 235
145 139 135 138 133 129 156 185 173 146 138 173 304 325 325 352 343 336 342 337 322 326 258 217 294 318 315 344 333 332 326 303 278 276 241 233 239 237 230 227 226 228 232
117 115 114 106 99 84 78 131 131 120 103 74 54 38 37 43 1 342 8 360 10 22 32 43 345 344 340 333 346 334 329 322 316 336 349 357 319 251 252 238 225 226 228
103 100 92 84 82 81 67 90 103 98 81 63 56 51 56 64 55 47 46 32 40 43 38 36 10 7 359 356 345 334 325 324 334 358 351 356 10 9 337 310 279 246 234
88 86 87 84 71 66 66 79 90 81 79 76 62 44 50 45 47 53 53 55 61 68 57 47 28 19 346 334 332 344 343 360 340 344 359 348 10 1 348 1 1 0 331
89 86 85 84 79 64 66 76 86 92 83 72 63 52 48 43 45 47 49 51 50 52 62 89 67 17 342 325 341 2 4 18 343 329 354 340 352 345 342 15 18 8 342
90 87 78 79 76 60 63 76 88 84 76 65 59 58 61 47 49 54 59 53 44 36 36 46 53 8 6 342 339 338 293 334 2 10 22 355 332 318 332 355 10 17 13
88 82 76 74 71 48 52 67 80 81 74 59 49 52 60 58 45 50 61 58 45 28 36 42 38 28 23 22 27 40 34 43 12 348 360 18 330 322 326 341 359 12 13
91 87 75 67 69 58 53 62 74 82 76 63 51 46 49 53 49 48 59 60 48 20 24 30 27 18 15 15 26 47 71 65 29 345 336 4 347 357 343 336 356 358 3